Flag for U.S.A. Weather past 2 weeks in Providence, Rhode Island, U.S.A.

Now
61 °F

Clear.


Feels Like: 61 °F
Forecast: 54 / 74 °F
Wind: 9 mph from Northwest

Location: Green State Airport

Current Time: Aug 29, 2014 at 2:23:52 AM

Latest Report: Aug 29, 2014 at 1:51 AM


Visibility: 10 mi

Pressure: 30.03 "Hg

Humidity: 65%

Dew point: 49 °F

Location of ProvidenceLocation

Historic Weather in Providence — Graph

°F

Providence temperature yesterday

Maximum temperature yesterday: 82 °F (at 2:51 PM)
Minimum temperature yesterday: 65 °F (at 11:51 PM)
Average temperature yesterday: 74 °F

Past Weeks' High & Low Weather Summary

 TemperatureHumidityPressure
High88 °F (Aug 25, 2:51 PM)97% (Aug 20, 4:51 AM)30.19 "Hg (Aug 20, 4:51 AM)
Low55 °F (Aug 19, 4:51 AM)36% (Aug 16, 2:51 PM)29.70 "Hg (Aug 14, 2:51 AM)
Average69 °F67%29.98 "Hg
* Reported Aug 14 12:51 AM — Aug 29 12:51 AM, Providence, Weather by CustomWeather, © 2014

Note: Actual official high and low records may vary slightly from our data, if they occured in-between our weather recording intervals... More about our weather records

Advertising

Providence weather history for previous 24 hours

 ConditionsComfort  
Time TempWeatherWind HumidityBarometerVisibility
12:51 AM
Aug 29
62 °FClear.6 mph65%30.03 "Hg10 mi
11:51 PM
Aug 28
65 °FClear.6 mph59%30.01 "Hg10 mi
10:51 PM66 °FClear.7 mph56%30.00 "Hg10 mi
9:51 PM68 °FPassing clouds.9 mph53%29.97 "Hg10 mi
8:51 PM70 °FPassing clouds.9 mph49%29.94 "Hg10 mi
7:51 PM73 °FPartly sunny.10 mph46%29.91 "Hg10 mi
6:51 PM74 °FPartly sunny.15 mph43%29.88 "Hg10 mi
5:51 PM78 °FPartly sunny.12 mph40%29.85 "Hg10 mi
4:51 PM79 °FPartly sunny.14 mph41%29.83 "Hg10 mi
3:51 PM80 °FPartly sunny.13 mph38%29.82 "Hg10 mi
2:51 PM82 °FScattered clouds.14 mph37%29.81 "Hg10 mi
1:51 PM81 °FScattered clouds.14 mph38%29.81 "Hg10 mi
12:51 PM79 °FScattered clouds.16 mph44%29.81 "Hg10 mi
11:51 AM80 °FScattered clouds.16 mph44%29.82 "Hg10 mi
10:51 AM78 °FScattered clouds.17 mph42%29.82 "Hg10 mi
9:51 AM75 °FPartly sunny.15 mph54%29.84 "Hg10 mi
8:51 AM74 °FPartly sunny.13 mph57%29.83 "Hg10 mi
7:51 AM72 °FScattered clouds.14 mph64%29.83 "Hg10 mi
6:51 AM69 °FPassing clouds.12 mph73%29.81 "Hg10 mi
5:51 AM69 °FPassing clouds.9 mph79%29.81 "Hg10 mi
4:51 AM70 °FPassing clouds.9 mph84%29.80 "Hg10 mi
3:51 AM70 °FClear.5 mph84%29.80 "Hg10 mi
2:51 AM71 °FClear.3 mph81%29.81 "Hg10 mi
Weather by CustomWeather, © 2014

See weather overviewHow to use our weather pages